Date String (YYYY-MM-DD hh:mm:ss) UTC,Instrument flags,Ambient pressure (hPa),Sample flow (lpm),Bypass flow (lpm),Sample temperature (°C),Ambient temperature (°C),ASC tube jacket temperature (°C),LED temperature (°C),Box temperature (°C),Sample RH (%),Span deviation,Mass concentration (μg/m³),Mass concentration (μg/m³),Mass concentration (μg/m³)
DateTimeUTC,F1_M11,P_M11,Q1_M11,Q2_M11,T1_M11,T2_M11,T3_M11,T4_M11,T5_M11,U1_M11,ZSPAN_M11,X0_M11,X2_M11,X1_M11
2022-12-06 06:00:00,,0818.4,5.00,0.00,21.9,20.6,00.0,30.9,23.8,14.3,0000.0,0006.64,0001.55,0000.86
2022-12-06 06:01:00,,0818.4,5.00,0.00,21.9,20.6,00.0,30.9,23.8,14.3,0000.0,0007.45,0001.54,0000.84
2022-12-06 06:02:00,,0818.3,5.00,0.00,21.9,20.6,00.0,30.9,23.8,14.3,0000.0,0007.62,0001.52,0000.84
2022-12-06 06:03:00,,0818.3,5.00,0.00,21.9,20.6,00.0,30.9,23.8,14.3,0000.0,0007.52,0001.47,0000.81
2022-12-06 06:04:00,,0818.3,5.00,0.00,21.9,20.6,00.0,30.9,23.8,14.3,0000.0,0007.41,0001.49,0000.80
2022-12-06 06:05:00,,0818.2,5.00,0.00,21.9,20.6,00.0,30.9,23.8,14.3,0000.0,0006.94,0001.53,0000.80
2022-12-06 06:06:00,,0818.2,5.00,0.00,21.9,20.6,00.0,30.9,23.8,14.4,0000.0,0007.48,0001.56,0000.80
2022-12-06 06:07:00,,0818.2,5.01,0.00,21.9,20.6,00.0,30.9,23.8,14.4,0000.0,0007.89,0001.57,0000.80
2022-12-06 06:08:00,,0818.2,5.00,0.00,21.9,20.6,00.0,30.9,23.8,14.4,0000.0,0007.88,0001.58,0000.79
2022-12-06 06:09:00,,0818.2,5.00,0.00,21.9,20.5,00.0,30.9,23.8,14.4,0000.0,0007.94,0001.60,0000.78
2022-12-06 06:10:00,,0818.2,5.00,0.00,21.9,20.5,00.0,30.9,23.8,14.3,0000.0,0008.44,0001.60,0000.77
2022-12-06 06:11:00,,0818.1,5.00,0.00,21.9,20.5,00.0,30.9,23.8,14.3,0000.0,0008.58,0001.65,0000.76
2022-12-06 06:12:00,,0818.2,5.00,0.00,21.9,20.6,00.0,30.9,23.8,14.3,0000.0,0008.23,0001.72,0000.75
2022-12-06 06:13:00,,0818.2,5.00,0.00,21.9,20.6,00.0,30.9,23.8,14.3,0000.0,0008.12,0001.75,0000.74
2022-12-06 06:14:00,,0818.2,4.99,0.00,21.9,20.5,00.0,30.9,23.8,14.3,0000.0,0009.19,0001.80,0000.75
2022-12-06 06:15:00,,0818.2,4.99,0.00,21.9,20.5,00.0,30.9,23.8,14.3,0000.0,0009.78,0001.83,0000.75
2022-12-06 06:16:00,,0818.2,5.00,0.00,21.9,20.5,00.0,30.9,23.8,14.3,0000.0,0009.78,0001.79,0000.73
2022-12-06 06:17:00,,0818.2,5.00,0.00,21.9,20.5,00.0,30.9,23.8,14.3,0000.0,0009.38,0001.77,0000.73
2022-12-06 06:18:00,,0818.2,5.00,0.00,21.9,20.5,00.0,30.9,23.8,14.4,0000.0,0008.66,0001.76,0000.71
2022-12-06 06:19:00,,0818.2,5.01,0.00,21.9,20.5,00.0,30.9,23.8,14.3,0000.0,0008.60,0001.76,0000.71
2022-12-06 06:20:00,,0818.2,5.00,0.00,21.9,20.5,00.0,30.9,23.8,14.3,0000.0,0009.58,0001.75,0000.71
2022-12-06 06:21:00,,0818.2,5.00,0.00,21.9,20.6,00.0,30.9,23.8,14.3,0000.0,0009.04,0001.78,0000.72
2022-12-06 06:22:00,,0818.2,4.99,0.00,21.9,20.6,00.0,30.8,23.8,14.3,0000.0,0008.99,0001.77,0000.71
2022-12-06 06:23:00,,0818.2,4.99,0.00,21.9,20.6,00.0,30.8,23.8,14.3,0000.0,0008.87,0001.72,0000.71
2022-12-06 06:24:00,,0818.3,5.00,0.00,21.9,20.6,00.0,30.8,23.8,14.3,0000.0,0009.04,0001.68,0000.71
2022-12-06 06:25:00,,0818.2,5.00,0.00,21.9,20.6,00.0,30.8,23.8,14.3,0000.0,0007.98,0001.59,0000.70
2022-12-06 06:26:00,,0818.2,5.01,0.00,21.9,20.6,00.0,30.8,23.8,14.3,0000.0,0007.34,0001.51,0000.70
2022-12-06 06:27:00,,0818.2,5.00,0.00,21.9,20.6,00.0,30.8,23.8,14.3,0000.0,0007.46,0001.52,0000.70
2022-12-06 06:28:00,,0818.1,5.00,0.00,21.9,20.7,00.0,30.8,23.8,14.3,0000.0,0007.50,0001.54,0000.71
2022-12-06 06:29:00,,0818.0,5.00,0.00,21.9,20.7,00.0,30.8,23.8,14.3,0000.0,0007.47,0001.52,0000.71
2022-12-06 06:30:00,,0818.0,5.00,0.00,21.9,20.7,00.0,30.8,23.8,14.3,0000.0,0006.44,0001.49,0000.72
2022-12-06 06:31:00,,0818.0,4.99,0.00,21.9,20.6,00.0,30.8,23.8,14.3,0000.0,0004.15,0001.45,0000.72
2022-12-06 06:32:00,,0818.0,5.00,0.00,21.9,20.6,00.0,30.8,23.8,14.2,0000.0,0003.93,0001.42,0000.73
2022-12-06 06:33:00,,0818.0,5.00,0.00,21.9,20.6,00.0,30.8,23.8,14.2,0000.0,0003.97,0001.41,0000.74
2022-12-06 06:34:00,,0818.0,5.00,0.00,21.9,20.6,00.0,30.8,23.8,14.2,0000.0,0004.93,0001.41,0000.75
2022-12-06 06:35:00,,0818.0,5.00,0.00,21.9,20.6,00.0,30.8,23.8,14.3,0000.0,0004.88,0001.45,0000.76
2022-12-06 06:36:00,,0817.9,5.00,0.00,21.9,20.6,00.0,30.9,23.8,14.3,0000.0,0004.90,0001.51,0000.78
2022-12-06 06:37:00,,0818.0,5.00,0.00,21.9,20.6,00.0,30.8,23.8,14.2,0000.0,0004.91,0001.54,0000.78
2022-12-06 06:38:00,,0818.0,5.01,0.00,21.9,20.5,00.0,30.8,23.7,14.2,0000.0,0004.57,0001.49,0000.79
2022-12-06 06:39:00,,0818.1,5.01,0.00,21.9,20.5,00.0,30.8,23.7,14.1,0000.0,0004.57,0001.48,0000.80
2022-12-06 06:40:00,,0818.2,5.00,0.00,21.9,20.5,00.0,30.8,23.7,14.1,0000.0,0004.59,0001.50,0000.81
2022-12-06 06:41:00,,0818.2,4.99,0.00,21.9,20.4,00.0,30.8,23.8,14.2,0000.0,0004.65,0001.50,0000.81
2022-12-06 06:42:00,,0818.2,4.99,0.00,21.8,20.4,00.0,30.8,23.7,14.3,0000.0,0004.97,0001.53,0000.82
2022-12-06 06:43:00,,0818.2,5.00,0.00,21.8,20.4,00.0,30.8,23.7,14.3,0000.0,0005.05,0001.53,0000.83
2022-12-06 06:44:00,,0818.2,5.00,0.00,21.8,20.4,00.0,30.8,23.7,14.3,0000.0,0005.25,0001.53,0000.84
2022-12-06 06:45:00,,0818.2,5.00,0.00,21.8,20.4,00.0,30.8,23.7,14.4,0000.0,0004.41,0001.55,0000.83
2022-12-06 06:46:00,,0818.2,5.00,0.00,21.8,20.3,00.0,30.8,23.7,14.4,0000.0,0003.86,0001.50,0000.83
2022-12-06 06:47:00,,0818.2,5.00,0.00,21.8,20.3,00.0,30.8,23.6,14.5,0000.0,0004.83,0001.51,0000.83
2022-12-06 06:48:00,,0818.1,5.01,0.00,21.8,20.3,00.0,30.8,23.6,14.5,0000.0,0004.74,0001.47,0000.83
2022-12-06 06:49:00,,0818.2,5.00,0.00,21.8,20.3,00.0,30.8,23.6,14.4,0000.0,0004.66,0001.45,0000.82
2022-12-06 06:50:00,,0818.2,5.00,0.00,21.8,20.3,00.0,30.8,23.6,14.4,0000.0,0004.62,0001.41,0000.81
2022-12-06 06:51:00,,0818.3,5.00,0.00,21.8,20.2,00.0,30.8,23.6,14.4,0000.0,0004.51,0001.33,0000.80
2022-12-06 06:52:00,,0818.2,4.99,0.00,21.7,20.2,00.0,30.8,23.5,14.4,0000.0,0004.83,0001.31,0000.81
2022-12-06 06:53:00,,0818.2,4.99,0.00,21.7,20.2,00.0,30.8,23.5,14.4,0000.0,0004.75,0001.29,0000.79
2022-12-06 06:54:00,,0818.3,5.00,0.00,21.7,20.3,00.0,30.8,23.6,14.5,0000.0,0004.92,0001.29,0000.78
2022-12-06 06:55:00,,0818.4,5.00,0.00,21.7,20.2,00.0,30.8,23.6,14.5,0000.0,0005.75,0001.33,0000.79
2022-12-06 06:56:00,,0818.4,5.00,0.00,21.7,20.2,00.0,30.7,23.6,14.6,0000.0,0005.49,0001.34,0000.81
2022-12-06 06:57:00,,0818.4,5.00,0.00,21.7,20.2,00.0,30.7,23.5,14.9,0000.0,0005.90,0001.41,0000.82
2022-12-06 06:58:00,,0818.4,5.00,0.00,21.7,20.2,00.0,30.7,23.5,15.1,0000.0,0005.32,0001.41,0000.82
2022-12-06 06:59:00,,0818.4,5.00,0.00,21.7,20.2,00.0,30.7,23.5,15.2,0000.0,0005.28,0001.44,0000.83
